AP-SC--CAE-SC W Cntrl Weather Roundup, SC

000

ASUS42 KCAE 151510

RWRCAE

REGIONAL WEATHER ROUNDUP

NATIONAL WEATHER SERVICE COLUMBIA SC

1100 AM EDT WED JUL 15 2015

NOTE: "FAIR" INDICATES FEW OR NO CLOUDS BELOW 12,000 FEET WITH NO

SIGNIFICANT WEATHER AND/OR OBSTRUCTIONS TO VISIBILITY.

NOT ALL STATIONS ARE QUALITY CONTROLLED BY THE NATIONAL

WEATHER SERVICE. USE DATA WITH CAUTION...ESPECIALLY

DEWPOINT OBSERVATIONS.

SCZ001>056-GAZ040-063>065-077-151600-

...UPSTATE SOUTH CAROLINA...

CITY SKY/WX TMP DP RH WIND PRES REMARKS

ANDERSON SUNNY 84 71 65 W12 29.85R

SPARTANBURG N/A 86 68 54 NW8 29.83S

CLEMSON SUNNY 85 69 58 W10 29.86R

GREENVILLE SUNNY 86 63 45 VRB3 29.86R

GREENWOOD SUNNY 83 70 64 W5 29.85S

GREER SUNNY 87 64 46 N8 29.84R

ROCK HILL MOSUNNY 85 68 56 W9 29.82S

CHESTER SUNNY 88 63 42 NW8 29.83S

LAURENS SUNNY 82 75 78 CALM 29.84S

...CENTRAL SOUTH CAROLINA...

CITY SKY/WX TMP DP RH WIND PRES REMARKS

COLUMBIA APT MOSUNNY 87 68 52 W8 29.81S

COLUMBIA OWENS MOSUNNY 85 68 56 W8 29.82F

DARLINGTON MOSUNNY 82 68 61 SW7 29.80F

FLORENCE MOSUNNY 81 69 67 W7 29.78F

MCENTIRE ANGB MOSUNNY 84 70 62 VRB7 29.82S

ORANGEBURG MOSUNNY 84 68 58 W12 29.82F

SUMTER SHAW MOSUNNY 82 70 67 W8 29.79F

NEWBERRY SUNNY 82 70 65 W7 29.86F

AIKEN FAIR 81 68 65 W8 29.87F

BARNWELL FAIR 84 72 65 W7 29.85S

CAMDEN FAIR 82 70 65 CALM 29.81F

LANCASTER SUNNY 82 70 65 W5 29.82S

WINNSBORO MOSUNNY 82 68 61 CALM 29.83S

...EASTERN AND COASTAL SOUTH CAROLINA...

CITY SKY/WX TMP DP RH WIND PRES REMARKS

MYRTLE BEACH SUNNY 86 70 58 W17 29.78F

N MYRTLE BCH SUNNY 86 69 56 W8 29.75F

CONWAY FAIR 86 70 58 W10 29.77F

MARION FAIR 82 68 61 W8 29.78F

HARTSVILLE FAIR 82 68 61 W3 29.80F

FLORENCE MOSUNNY 81 69 67 W7 29.78F

DARLINGTON MOSUNNY 82 68 61 SW7 29.80F

CHARLESTON APT MOSUNNY 89 70 53 W13G21 29.78F

MOUNT PLEASANT LGT RAIN 90 70 51 W12G22 29.78F HX 95

WALTERBORO MOSUNNY 88 68 51 W13 29.82S

BEAUFORT PTSUNNY 88 73 61 W14 29.81F HX 95

...EASTERN GEORGIA...

CITY SKY/WX TMP DP RH WIND PRES REMARKS

AUGUSTA BUSH F MOSUNNY 86 70 58 NW9 29.83F

AUGUSTA DANIEL MOSUNNY 83 70 64 W9 29.86S

THOMSON MOSUNNY 85 75 71 W5 29.90S

WASHINGTON FAIR 84 77 79 W7 29.87R

CLAXTON FAIR 86 73 66 W12G17 29.86F

SYLVANIA MOSUNNY 87 75 66 W14G21 29.85F HX 96

STATESBORO PTSUNNY 85 75 72 W12 29.86F

SAVANNAH PTSUNNY 88 73 61 W14 29.84F HX 95

...SOUTHERN NORTH CAROLINA...

CITY SKY/WX TMP DP RH WIND PRES REMARKS

CHARLOTTE CLOUDY 85 63 47 W5 29.82R

MONROE MOSUNNY 86 65 49 W7 29.81S

WADESBORO MOSUNNY 87 64 46 NW9 29.79F

ROCKINGHAM SUNNY 82 68 61 NW5 29.79F

RUTHERFORDTON CLOUDY 81 67 61 E6 29.85S

ASHEVILLE CLOUDY 75 65 70 N9 29.92R

$$

Delivered by Weather Underground Inc. Wed Jul 15 2015 11:10AM EDT